Lid_Strength_Index
2 3 3 3 3 3 4 7 10 3 2 10 11 12 12 8 9 8 9 11 12 14 14 15 15 16 15 14 13 16 14 17 22 20 18 17 18 19 19 21 23 24 23 20
2 2 3 3 3 3 7 9 8 3 3 12 12 11 10 9 10 11 10 11 11 11 13 15 14 14 14 13 13 14 14 19 24 21 19 18 19 18 18 18 19 24 24 21
2 2 2 2 3 3 6 9 12 9 6 7 10 11 11 11 9 9 9 10 10 11 12 11 14 14 12 13 13 10 12 18 19 20 19 18 20 19 18 18 24 22 21 21
1 2 2 2 2 3 7 9 14 14 12 11 10 10 12 12 12 9 8 10 11 11 13 13 13 12 13 12 12 13 12 19 21 20 17 17 17 18 19 20 19 21 19 21
2 2 1 2 2 2 7 11 12 11 16 9 10 11 13 12 11 10 11 11 10 11 13 12 14 12 13 13 13 14 14 19 20 21 19 17 18 17 18 18 19 18 19 18
1 2 -0 1 1 2 7 8 10 10 13 12 11 11 12 11 10 11 9 10 10 11 10 9 8 8 9 9 12 14 14 18 19 21 20 18 19 18 16 17 17 16 19 15
1 1 1 0 1 3 7 7 9 14 20 13 11 11 11 11 10 11 11 9 10 9 6 6 6 7 8 8 10 10 14 14 14 18 17 23 16 15 15 15 15 15 15 14
1 1 2 -0 1 1 6 6 9 14 22 13 12 11 10 11 10 11 11 11 8 7 9 12 17 14 13 12 10 10 11 13 19 20 22 18 15 15 15 15 15 13 13 13
1 0 1 1 -0 0 5 7 7 10 17 17 11 11 11 11 11 13 12 10 7 8 10 13 22 25 22 17 14 9 10 10 14 18 23 24 16 13 13 13 17 11 12 12
1 1 1 2 -0 -0 4 8 6 8 14 13 12 13 12 10 11 11 13 10 10 9 12 15 19 22 18 20 18 15 14 13 15 15 20 17 12 12 11 16 14 11 11 11
1 1 1 2 -0 -1 3 7 5 8 14 13 11 10 11 11 11 13 12 11 12 11 13 15 19 21 18 20 18 17 15 17 17 15 17 18 11 12 13 11 10 10 10 10
-0 1 2 2 -0 -0 2 7 4 5 9 11 9 10 10 9 8 10 10 11 12 11 15 17 18 19 18 21 22 15 18 15 17 14 15 10 11 10 10 9 10 9 9 9
1 1 2 1 -0 -0 2 5 5 6 10 11 11 12 10 7 8 7 11 12 10 11 11 15 17 21 16 18 19 17 15 13 15 14 12 11 11 10 10 10 10 10 10 10
0 0 2 0 -0 -0 2 4 4 8 10 14 15 10 11 9 7 7 8 8 7 8 10 15 17 19 14 17 15 15 15 13 17 15 12 11 11 11 11 10 9 10 11 11
1 1 2 -0 -0 1 3 3 4 6 9 14 16 12 11 9 7 7 7 8 10 10 12 14 15 14 15 14 14 15 15 15 14 15 11 11 10 11 11 10 11 11 11 11
1 1 0 -0 0 1 4 8 4 5 7 12 18 12 14 11 9 8 8 9 9 10 12 15 15 13 15 20 21 15 13 12 11 12 11 11 11 12 11 10 11 12 11 11
1 0 -0 -0 1 3 10 10 5 3 7 14 17 20 15 13 11 14 13 12 12 12 14 15 14 13 13 16 20 15 13 13 12 12 12 14 14 12 12 13 13 13 13 13
-0 -0 0 1 1 3 6 4 1 4 9 13 19 21 18 12 15 15 14 12 12 15 20 16 19 18 17 20 16 14 13 13 13 12 12 11 11 15 15 17 18 15 14 14
0 0 1 3 6 8 7 1 3 5 9 18 24 20 22 13 15 13 14 13 15 18 18 19 17 24 21 18 16 15 14 14 13 11 13 17 17 13 15 17 17 19 15 14
1 4 8 9 7 1 3 7 7 10 14 19 22 24 21 14 15 17 14 15 17 22 19 20 23 19 14 14 14 13 14 13 15 19 18 20 22 18 16 16 15 13 13 12
8 13 11 4 3 9 15 14 14 13 15 20 21 21 16 14 18 21 16 16 23 25 21 21 29 23 17 13 13 13 16 18 19 19 18 17 17 16 17 16 17 14 14 14
8 6 6 8 12 15 18 25 21 21 19 21 18 18 16 15 12 15 17 23 23 25 25 24 25 20 22 24 23 22 22 23 23 24 23 22 21 23 22 20 19 17 16 14
8 10 14 14 16 21 22 21 21 22 25 20 18 18 13 11 11 19 18 20 21 22 19 21 21 23 27 28 29 25 27 29 29 27 29 27 26 27 26 23 21 20 19 16
14 16 18 21 19 22 23 22 20 17 18 15 17 14 13 14 14 19 19 23 24 30 28 26 25 27 27 29 31 31 26 27 28 27 28 27 27 25 25 24 22 21 21 19
17 18 21 21 24 29 31 33 25 21 17 11 14 14 12 14 18 22 24 24 24 25 24 24 25 26 28 27 27 28 27 25 25 26 27 26 26 25 24 23 23 22 21 20
19 19 22 27 23 25 27 28 23 20 13 14 13 15 19 20 20 21 23 25 26 22 28 25 26 27 25 22 21 21 21 21 22 23 24 25 26 25 24 23 23 22 21 19
22 22 30 26 27 22 23 22 19 14 14 18 19 19 18 20 21 23 26 23 26 29 28 26 24 24 23 22 22 21 20 20 22 20 21 24 24 24 24 24 23 22 21 19